[[{"header":{"parameterUnit":"m.s-1","parameterCategory":1,"la1":30.2991,"la2":30.254,"lo1":-89.0895,"lo2":-89.0444,"dy":0.0017,"dx":0.0017,"nx":28,"ny":28,"refTime":"2023-08-14T03:00:00:Z","depth":0,"parameterNumber":2,"parameterNumberName":"U-component_of_WINDS"},"data":[0,0,0,0,0,0,0,0,0,0,0,0,0,0,0,0,0,0,0,0,0,0,0,0,0,0,0,0,0,0,0,0,0,0,0,0,0,0,0,0,0,0,0,0,0,0,0,0,0,0,0,0,0,0,0,0,0,0,0.3589,0.3587,0,0.3386,0.3384,0.3382,0.3322,0.3323,0.3324,0.3325,0.311,0.3104,0.3097,0,0,0,0,0,0,0,0,0,0,0,0,0,0.3916,0.3911,0.3589,0.3586,0.3584,0.3387,0.3384,0.3381,0.3322,0.3323,0.3325,0.3326,0.3112,0.3104,0.3096,0,0,0,0,0,0,0,0,0,0,0,0,0,0.375,0.3909,0.3589,0.3531,0.3524,0.3387,0.3384,0.338,0.3322,0.3323,0.3325,0.3327,0.3115,0.3105,0.3095,0.3,0,0,0.3064,0.306,0,0,0,0,0,0,0,0,0.3759,0.3738,0.3542,0.3535,0.3526,0.3381,0.342,0.3253,0.3321,0.3398,0.3325,0.3327,0.3199,0.3182,0.314,0.299,0.2981,0.3063,0.3057,0.3053,0.305,0,0,0,0,0,0,0,0.3771,0.3746,0.3508,0.3539,0.3529,0.3512,0.349,0.3388,0.3291,0.3392,0.3387,0.3364,0.3195,0.315,0.3134,0.2978,0.3064,0.3055,0.3049,0.3045,0.2736,0.2734,0,0,0,0,0,0,0.3794,0.3756,0.3515,0.3502,0.365,0.3505,0.348,0.3426,0.3292,0.3274,0.3363,0.3362,0.3166,0.3146,0.3127,0.3004,0.3053,0.3044,0.3038,0.2738,0.2735,0.2733,0,0,0,0,0,0,0.3801,0.3773,0.3523,0.3628,0.3595,0.3497,0.3437,0.3421,0.3376,0.3271,0.3252,0.3335,0.3167,0.3141,0.3032,0.2996,0.3039,0.303,0.2741,0.2737,0.2734,0.276,0,0,0,0,0,0,0.3811,0.3776,0.3741,0.3628,0.359,0.3434,0.3435,0.3416,0.336,0.3357,0.324,0.3222,0.3166,0.3047,0.3022,0.2983,0.3022,0.2743,0.2739,0.2735,0.2762,0.2758,0.2755,0,0,0,0,0,0.3823,0.3755,0.3739,0.371,0.3544,0.3433,0.341,0.3349,0.3358,0.332,0.3252,0.3226,0.3005,0.3037,0.3007,0.2965,0.2745,0.274,0.2736,0.2763,0.2759,0.2755,0,0,0,0,0,0,0.3864,0.3739,0.372,0.3615,0.3535,0.3423,0.3374,0.3347,0.3261,0.3261,0.3187,0.3161,0.3056,0.3,0.3038,0.2864,0.2874,0.2863,0.2905,0.29,0.2896,0.2911,0.3014,0,0,0,0,0,0.3862,0.3784,0.3678,0.3595,0.3556,0.3472,0.3421,0.3381,0.3294,0.3259,0.3183,0.3098,0.3008,0.2951,0.2863,0.2754,0.2726,0.271,0.2706,0.2704,0.2695,0.263,0.262,0.2717,0.2717,0.2718,0,0,0.3854,0.3776,0.3732,0.3601,0.3535,0.3453,0.3444,0.3358,0.3296,0.3245,0.3138,0.3079,0.2978,0.2868,0.2816,0.2818,0.2662,0.2698,0.2697,0.2688,0.2624,0.2615,0.2607,0.2714,0.2715,0.2715,0,0,0.3799,0.3734,0.3656,0.359,0.349,0.3434,0.3416,0.3307,0.3267,0.3158,0.3118,0.3041,0.289,0.2819,0.2764,0.268,0.2652,0.2654,0.2634,0.2572,0.2564,0.2557,0.2524,0.2514,0.2645,0.2645,0.2645,0,0.3802,0.368,0.3619,0.3535,0.3478,0.3431,0.3349,0.3287,0.3163,0.3123,0.3127,0.2935,0.2864,0.2736,0.2715,0.2673,0.2646,0.2666,0.2571,0.2563,0.2555,0.2523,0.2511,0.2646,0.2646,0.2646,0.2646,0,0.3687,0.3603,0.3552,0.3435,0.3371,0.3289,0.3213,0.3156,0.3121,0.3064,0.2952,0.2866,0.2759,0.2725,0.269,0.259,0.2594,0.2586,0.2594,0.2548,0.2516,0.2504,0.2647,0.2647,0.2646,0.2646,0,0,0.3652,0.3502,0.3484,0.3429,0.3315,0.3247,0.3162,0.3059,0.301,0.2925,0.285,0.2722,0.2713,0.265,0.2606,0.2551,0.2487,0.2549,0.2545,0.2538,0.2369,0.2375,0.2362,0.2469,0.2467,0.2465,0.2377,0,0.358,0.3428,0.337,0.3245,0.3164,0.3118,0.3043,0.2963,0.2907,0.2828,0.2765,0.2676,0.2672,0.2633,0.2577,0.2507,0.2452,0.2513,0.2394,0.2391,0.2419,0.2346,0.2352,0.2273,0.2364,0.2362,0.2361,0,0.3476,0.3392,0.326,0.3153,0.3117,0.3051,0.2951,0.2878,0.2785,0.2748,0.2677,0.2636,0.2542,0.2557,0.2424,0.2467,0.2414,0.2373,0.2368,0.2353,0.2372,0.2326,0.2247,0.2234,0.2341,0.2343,0.2344,0,0.3461,0.3314,0.3215,0.317,0.3045,0.2999,0.2944,0.2853,0.2794,0.2706,0.2666,0.2568,0.2513,0.2436,0.2369,0.2387,0.224,0.2251,0.2204,0.2205,0.2173,0.2176,0.2082,0.2144,0.2144,0.2144,0.2145,0,0.3386,0.3305,0.3206,0.3145,0.3053,0.2986,0.2896,0.2837,0.2757,0.2681,0.2634,0.2564,0.248,0.2397,0.2344,0.224,0.2216,0.2181,0.2167,0.2183,0.2188,0.2147,0.2149,0.2141,0.2142,0.2143,0.2143,0,0.3352,0.3283,0.3171,0.3062,0.3032,0.2969,0.2873,0.281,0.2753,0.2657,0.2631,0.2539,0.244,0.2366,0.2236,0.22,0.2088,0.2075,0.212,0.2113,0.2069,0.2073,0.1944,0.1922,0.2001,0.2001,0.2,0,0.3307,0.3245,0.3128,0.3076,0.3021,0.2937,0.2877,0.2808,0.2747,0.2636,0.2585,0.2483,0.2398,0.2241,0.216,0.206,0.2043,0.2004,0.2027,0.2045,0.2039,0.2043,0.2035,0.2001,0.2,0.2,0.1999,0,0.3234,0.3203,0.312,0.3024,0.2954,0.2875,0.2795,0.2753,0.2669,0.2603,0.2502,0.2436,0.2304,0.2202,0.2094,0.2034,0.2001,0.1993,0.1976,0.1992,0.2019,0.2001,0.2109,0.1996,0.1996,0.1996,0.1997,0.1997,0.3191,0.3133,0.3042,0.295,0.2882,0.2808,0.2743,0.2678,0.2593,0.2482,0.2446,0.2341,0.2247,0.2099,0.2038,0.1953,0.1952,0.1929,0.1922,0.1917,0.1917,0.2036,0.1933,0.1933,0.1933,0.1933,0.1933,0,0.3114,0.3053,0.297,0.2859,0.2786,0.2765,0.2675,0.2614,0.2523,0.2439,0.2357,0.2239,0.2139,0.2052,0.1948,0.1896,0.1878,0.1871,0.1872,0.1858,0.1924,0.1948,0.1887,0.1887,0.1887,0.1887,0.1887,0.1887,0.3065,0.2964,0.2921,0.2785,0.2724,0.2622,0.2572,0.2502,0.2435,0.2307,0.2225,0.2169,0.2083,0.1972,0.1879,0.1855,0.1818,0.1813,0.1786,0.1849,0.1854,0.1859,0.1881,0.1807,0.1806,0.1726,0.1726,0.1725]},{"header":{"parameterUnit":"m.s-1","parameterCategory":1,"la1":30.2991,"la2":30.254,"lo1":-89.0895,"lo2":-89.0444,"dy":0.0017,"dx":0.0017,"nx":28,"ny":28,"refTime":"2023-08-14T03:00:00:Z","depth":0,"parameterNumber":3,"parameterNumberName":"V-component_of_WINDS"},"data":[0,0,0,0,0,0,0,0,0,0,0,0,0,0,0,0,0,0,0,0,0,0,0,0,0,0,0,0,0,0,0,0,0,0,0,0,0,0,0,0,0,0,0,0,0,0,0,0,0,0,0,0,0,0,0,0,0,0,-2.2876,-2.2876,0,-2.2898,-2.2898,-2.2898,-2.2926,-2.2926,-2.2927,-2.2927,-2.2946,-2.2946,-2.2947,0,0,0,0,0,0,0,0,0,0,0,0,0,-2.2856,-2.2857,-2.2876,-2.2876,-2.2876,-2.2898,-2.2898,-2.2898,-2.2926,-2.2926,-2.2927,-2.2927,-2.2946,-2.2946,-2.2947,0,0,0,0,0,0,0,0,0,0,0,0,0,-2.287,-2.2857,-2.2876,-2.2893,-2.2894,-2.2898,-2.2898,-2.2898,-2.2926,-2.2926,-2.2927,-2.2928,-2.2946,-2.2946,-2.2947,-2.2934,0,0,-2.2947,-2.2947,0,0,0,0,0,0,0,0,-2.2869,-2.2871,-2.289,-2.2891,-2.2893,-2.291,-2.2898,-2.291,-2.2926,-2.2914,-2.2927,-2.2928,-2.2933,-2.2935,-2.2937,-2.2935,-2.2936,-2.2947,-2.2947,-2.2947,-2.2947,0,0,0,0,0,0,0,-2.2868,-2.287,-2.2884,-2.289,-2.2892,-2.2899,-2.2902,-2.2901,-2.2919,-2.2915,-2.2917,-2.2919,-2.2935,-2.2937,-2.2938,-2.2936,-2.2947,-2.2947,-2.2947,-2.2947,-2.2928,-2.2927,0,0,0,0,0,0,-2.2865,-2.2869,-2.2884,-2.2885,-2.2883,-2.2899,-2.2902,-2.2904,-2.292,-2.2923,-2.2919,-2.292,-2.2936,-2.2938,-2.2939,-2.2927,-2.2947,-2.2947,-2.2947,-2.2928,-2.2928,-2.2927,0,0,0,0,0,0,-2.2865,-2.2866,-2.2883,-2.2878,-2.288,-2.2898,-2.29,-2.2904,-2.2906,-2.2923,-2.2926,-2.2918,-2.2937,-2.2938,-2.2936,-2.2928,-2.2947,-2.2947,-2.2929,-2.2928,-2.2927,-2.2902,0,0,0,0,0,0,-2.2864,-2.2866,-2.2861,-2.2877,-2.288,-2.288,-2.29,-2.2904,-2.2907,-2.291,-2.2923,-2.2925,-2.2938,-2.2936,-2.2936,-2.2929,-2.2948,-2.293,-2.2929,-2.2928,-2.2904,-2.2901,-2.2898,0,0,0,0,0,-2.2863,-2.2852,-2.2861,-2.2862,-2.2875,-2.2879,-2.2881,-2.2896,-2.2906,-2.2902,-2.2913,-2.2925,-2.2929,-2.2935,-2.2936,-2.2928,-2.293,-2.2929,-2.2928,-2.2905,-2.2901,-2.2898,0,0,0,0,0,0,-2.2832,-2.2854,-2.2864,-2.2858,-2.2867,-2.2884,-2.2878,-2.2891,-2.2896,-2.2898,-2.2916,-2.2919,-2.2915,-2.2921,-2.2928,-2.2919,-2.2932,-2.293,-2.2914,-2.2911,-2.2908,-2.2906,-2.2948,0,0,0,0,0,-2.2824,-2.2827,-2.2845,-2.2838,-2.2842,-2.286,-2.2862,-2.2874,-2.2883,-2.2886,-2.2897,-2.2905,-2.2908,-2.291,-2.2914,-2.2905,-2.291,-2.2901,-2.2898,-2.2895,-2.2894,-2.2893,-2.289,-2.2923,-2.2923,-2.2923,0,0,-2.2808,-2.2821,-2.2821,-2.2832,-2.284,-2.2842,-2.2862,-2.2862,-2.2864,-2.2886,-2.2885,-2.2893,-2.2904,-2.2899,-2.2897,-2.2904,-2.2886,-2.2894,-2.2891,-2.2891,-2.2891,-2.2888,-2.2885,-2.2922,-2.2922,-2.2922,0,0,-2.2781,-2.279,-2.2786,-2.2795,-2.2808,-2.282,-2.2819,-2.2836,-2.2843,-2.2842,-2.286,-2.2862,-2.2867,-2.2874,-2.2879,-2.2858,-2.287,-2.2859,-2.2843,-2.2842,-2.2839,-2.2837,-2.2831,-2.2828,-2.2858,-2.2857,-2.2857,0,-2.2759,-2.2763,-2.2782,-2.2783,-2.2788,-2.281,-2.2807,-2.2814,-2.2827,-2.283,-2.2838,-2.2847,-2.2855,-2.2854,-2.285,-2.2852,-2.2852,-2.2857,-2.2838,-2.2836,-2.2834,-2.2829,-2.2826,-2.2856,-2.2856,-2.2856,-2.2857,0,-2.2737,-2.2739,-2.2735,-2.2749,-2.2754,-2.2752,-2.2771,-2.2774,-2.2786,-2.2798,-2.2799,-2.281,-2.2818,-2.2819,-2.2829,-2.282,-2.2824,-2.2835,-2.2848,-2.2829,-2.2825,-2.2823,-2.2854,-2.2855,-2.2855,-2.2855,0,0,-2.2687,-2.2715,-2.2713,-2.2721,-2.2739,-2.2742,-2.2742,-2.2752,-2.2754,-2.2763,-2.2765,-2.277,-2.2782,-2.2787,-2.2799,-2.2798,-2.2783,-2.2809,-2.281,-2.2805,-2.2776,-2.2768,-2.2766,-2.2792,-2.2792,-2.2791,-2.2776,0,-2.2663,-2.2666,-2.2685,-2.2682,-2.2686,-2.2709,-2.271,-2.2721,-2.2733,-2.2738,-2.275,-2.2755,-2.2768,-2.2772,-2.2772,-2.2785,-2.2778,-2.2786,-2.2794,-2.2794,-2.2791,-2.2763,-2.2754,-2.2738,-2.2774,-2.2774,-2.2773,0,-2.2635,-2.2645,-2.2644,-2.2665,-2.2667,-2.2667,-2.2679,-2.2684,-2.2698,-2.2707,-2.2714,-2.2729,-2.2732,-2.2745,-2.275,-2.2755,-2.276,-2.2767,-2.2767,-2.2768,-2.2782,-2.2764,-2.2733,-2.2731,-2.277,-2.2771,-2.2771,0,-2.2601,-2.2614,-2.2616,-2.2622,-2.2646,-2.2646,-2.2656,-2.2671,-2.2677,-2.2687,-2.2691,-2.2701,-2.2706,-2.2714,-2.2732,-2.274,-2.2735,-2.2749,-2.2743,-2.2743,-2.274,-2.274,-2.2711,-2.2743,-2.2743,-2.2743,-2.2743,0,-2.2573,-2.2571,-2.2601,-2.2602,-2.2602,-2.2624,-2.2623,-2.2635,-2.2649,-2.2653,-2.2673,-2.2676,-2.2699,-2.2705,-2.2719,-2.2722,-2.2724,-2.2732,-2.2736,-2.273,-2.2729,-2.2733,-2.2735,-2.2742,-2.2742,-2.2742,-2.2742,0,-2.2534,-2.2554,-2.2558,-2.2582,-2.2588,-2.2586,-2.2607,-2.2609,-2.2623,-2.2628,-2.2631,-2.2653,-2.2662,-2.2681,-2.2694,-2.2703,-2.2703,-2.271,-2.2699,-2.2701,-2.2695,-2.2695,-2.2667,-2.2665,-2.2697,-2.2697,-2.2696,0,-2.2514,-2.2514,-2.2539,-2.2544,-2.2554,-2.2561,-2.2568,-2.2591,-2.2597,-2.2615,-2.2615,-2.2626,-2.2636,-2.2649,-2.2667,-2.2678,-2.2685,-2.2674,-2.2686,-2.2682,-2.2686,-2.2686,-2.2687,-2.2671,-2.2671,-2.267,-2.267,0,-2.2478,-2.2489,-2.2499,-2.2513,-2.2521,-2.2532,-2.2545,-2.2548,-2.2574,-2.258,-2.259,-2.2598,-2.2614,-2.2625,-2.2639,-2.2649,-2.2664,-2.2667,-2.2666,-2.266,-2.2655,-2.2659,-2.2692,-2.2667,-2.2667,-2.2667,-2.2667,-2.2668,-2.245,-2.2452,-2.247,-2.2481,-2.2494,-2.2506,-2.251,-2.2526,-2.2536,-2.2551,-2.2564,-2.2573,-2.2591,-2.2612,-2.2622,-2.263,-2.2637,-2.2636,-2.2635,-2.2635,-2.2633,-2.2654,-2.2633,-2.2633,-2.2633,-2.2633,-2.2633,0,-2.2416,-2.243,-2.244,-2.2458,-2.2467,-2.2482,-2.2498,-2.2504,-2.2513,-2.2528,-2.2539,-2.2552,-2.2564,-2.2583,-2.2597,-2.26,-2.2607,-2.2603,-2.2603,-2.2606,-2.2625,-2.2625,-2.2597,-2.2597,-2.2597,-2.2597,-2.2597,-2.2597,-2.2399,-2.2404,-2.2418,-2.243,-2.2444,-2.2455,-2.2463,-2.2475,-2.2487,-2.2502,-2.2512,-2.2526,-2.2543,-2.2559,-2.2571,-2.2577,-2.2581,-2.2575,-2.2582,-2.26,-2.2604,-2.2607,-2.2607,-2.2575,-2.2575,-2.2562,-2.2562,-2.2562]}]]